Location: Makanda
(37.6176°N, 89.2090°W)
Time: 12:16:48
(UTC+00:00)

Lacrosse 5 - Pass Details

Date: 23 September 2019
Orbit: 715 x 724 km, 57.0° (Epoch: 16 October)

Event Time Altitude Azimuth Distance (km) Brightness Sun altitude
Rises 02:30:43 0° 229° (SW) 3,106 5.4 -30.8°
Reaches altitude 10° 02:33:07 10° 232° (SW) 2,189 4.6 -31.2°
Enters shadow 02:35:14 25° 239° (WSW) 1,418 3.6 -31.6°
